Location: Unspecified
(52.4292°N, 19.3359°E)
Time: 10:25:02
(UTC+02:00)

Tiros 1 - Pass Details

Date: 18 May 2024
Orbit: 624 x 657 km, 48.4° (Epoch: 22 June)

Event Time Altitude Azimuth Distance (km) Brightness Sun altitude
Rises 19:03:33 0° 277° (W) 2,980 12.5 12.0°
Reaches altitude 10° 19:06:09 10° 266° (W) 2,063 11.3 11.6°
Maximum altitude 19:10:12 28° 207° (SSW) 1,212 8.8 11.0°
Drops below altitude 10° 19:14:13 10° 149° (SSE) 2,042 9.3 10.4°
Sets 19:16:46 0° 138° (SE) 2,943 10.0 10.0°
